Oak Ridge, TN

9:36 PM EDT on May 28, 2017 (GMT -0400)
Oak Ridge

Weather History for KOQT - March, 2013

Change the Weather History Date:

Friday, March 22, 2013

  Actual Average (KTYS) Record (KTYS)
Temperature  
Mean Temperature 36 °F -  
Max Temperature 46 °F 60 °F 87 °F (1907)
Min Temperature 27 °F 38 °F 13 °F (1876)
Degree Days  
Heating Degree Days 29    
Moisture  
Dew Point 17 °F    
Average Humidity 47    
Maximum Humidity 66    
Minimum Humidity 30    
Precipitation  
Precipitation 0.00 in - - ()
Sea Level Pressure  
Sea Level Pressure 30.09 in    
Wind  
Wind Speed 1 mph (NE)    
Max Wind Speed 6 mph    
Max Gust Speed -    
Visibility 10 miles    
Events      
Averages and records for this station are not official NWS values.
T = Trace of Precipitation, MM = Missing Value Source: NWS Daily Summary

Daily Weather History Graph

Daily Weather History Graph

Search for Another Location

Airport or City:

Trip Planner

Search our weather history database for the weather conditions in past years. The results will help you decide how hot, cold, wet, or windy it might be!

Date:

Astronomy

Mar. 22, 2013 Rise Set
Actual Time 7:37 AM EDT 7:50 PM EDT
Civil Twilight 7:11 AM EDT 8:16 PM EDT
Nautical Twilight 6:41 AM EDT 8:46 PM EDT
Astronomical Twilight 6:11 AM EDT 9:16 PM EDT
Moon 3:24 PM EDT (3/22) 4:29 AM EDT (3/22)
Length of Visible Light 13h 04m
Length of Day
12h 13m
Waxing Gibbous, 77% of the Moon is Illuminated
Mar 22
Waxing Gibbous
Mar 27
Full
Apr 3
Last Quarter
Apr 10
New
Apr 18
First Quarter

Hourly Weather History & Observations

Time (EDT) Temp. Windchill Dew Point Humidity Pressure Visibility Wind Dir Wind Speed Gust Speed Precip Events Conditions
12:53 AM 30.0 °F 26.5 °F 12.9 °F 49% 30.08 in 10.0 mi NE 3.5 mph - N/A   Clear
1:53 AM 30.0 °F 25.2 °F 12.9 °F 49% 30.07 in 10.0 mi ENE 4.6 mph - N/A   Clear
2:53 AM 28.9 °F - 12.0 °F 49% 30.09 in 10.0 mi Calm Calm - N/A   Clear
3:53 AM 28.0 °F - 14.0 °F 56% 30.08 in 10.0 mi Calm Calm - N/A   Clear
4:53 AM 27.0 °F - 15.1 °F 61% 30.07 in 10.0 mi Calm Calm - N/A   Clear
5:53 AM 27.0 °F - 16.0 °F 63% 30.08 in 10.0 mi Calm Calm - N/A   Clear
6:53 AM 27.0 °F - 17.1 °F 66% 30.10 in 10.0 mi Calm Calm - N/A   Overcast
7:53 AM 27.0 °F - 17.1 °F 66% 30.11 in 10.0 mi Calm Calm - N/A   Overcast
8:53 AM 28.9 °F - 16.0 °F 58% 30.12 in 10.0 mi Calm Calm - N/A   Overcast
9:53 AM 30.9 °F 25.2 °F 17.1 °F 57% 30.14 in 10.0 mi ENE 5.8 mph - N/A   Overcast
10:53 AM 33.1 °F - 16.0 °F 50% 30.14 in 10.0 mi Calm Calm - N/A   Overcast
11:53 AM 36.0 °F 33.3 °F 16.0 °F 44% 30.12 in 10.0 mi North 3.5 mph - N/A   Overcast
12:53 PM 39.9 °F - 15.1 °F 36% 30.10 in 10.0 mi Calm Calm - N/A   Mostly Cloudy
1:53 PM 42.1 °F - 15.1 °F 34% 30.09 in 10.0 mi Calm Calm - N/A   Overcast
2:53 PM 44.1 °F - 14.0 °F 30% 30.07 in 10.0 mi Calm Calm - N/A   Overcast
3:53 PM 45.0 °F - 15.1 °F 30% 30.06 in 10.0 mi Calm Calm - N/A   Overcast
4:53 PM 45.0 °F - 16.0 °F 31% 30.05 in 10.0 mi Calm Calm - N/A   Overcast
5:53 PM 45.0 °F - 17.1 °F 33% 30.05 in 10.0 mi Calm Calm - N/A   Overcast
6:53 PM 45.0 °F - 18.0 °F 34% 30.06 in 10.0 mi Calm Calm - N/A   Overcast
7:53 PM 44.1 °F - 19.0 °F 37% 30.06 in 10.0 mi Calm Calm - N/A   Overcast
8:53 PM 44.1 °F - 19.0 °F 37% 30.07 in 10.0 mi Calm Calm - N/A   Overcast
9:53 PM 43.0 °F - 26.1 °F 51% 30.08 in 10.0 mi Calm Calm - 0.00 in   Overcast
10:53 PM 42.1 °F - 27.0 °F 55% 30.08 in 10.0 mi Calm Calm - N/A   Overcast
11:53 PM 42.1 °F - 27.0 °F 55% 30.07 in 10.0 mi Calm Calm - N/A   Overcast